Location: Bagnols
(44.1599°N, 4.6178°E)
Time: 21:50:00
(UTC+00:00)

Daily predictions for brighter satellites

Satellite Brightness Start Highest point End
(mag) Time Altitude Azimuth Time Altitude Azimuth Time Altitude Azimuth
Cosmos 2219 3.2 17:19:58 10° NNW 17:25:35 68° ENE 17:31:10 10° SSE
CZ-2D R/B 3.2 17:21:48 10° SSE 17:25:35 65° ENE 17:29:25 10° N
Timation 2 Rocket 4.3 17:20:22 10° NNW 17:27:09 56° ENE 17:33:46 10° SE
SMAP 3.9 17:24:33 10° S 17:29:06 56° W 17:33:43 10° NNW
SL-19 R/B 4.3 17:23:48 10° NNE 17:29:39 71° ESE 17:35:13 10° S
ATLAS 3B R/B 2.7 17:24:28 10° SSW 17:30:52 63° ESE 17:37:34 10° NE
Cosmos 2360 4.5 17:28:51 10° S 17:34:16 48° ESE 17:39:45 10° NE
Cosmos 1980 Rocket 3.0 17:33:26 10° SSE 17:38:15 30° ESE 17:43:08 10° NE
Okean 2 Rocket 4.0 17:34:19 10° SSW 17:38:38 54° WNW 17:43:01 10° N
SKYMED 2 3.6 17:34:44 10° NNE 17:39:01 56° E 17:43:16 10° S
Cosmos 2297 Rocket 2.5 17:33:38 10° NNW 17:39:17 72° WSW 17:44:53 10° SSE
Aureole 2 3.9 17:36:46 10° NNW 17:39:43 72° ENE 17:42:48 10° SSE
Okean O Rocket 1.6 17:35:53 10° SSE 17:40:08 59° ENE 17:44:26 10° N
Cosmos 2263 Rocket 3.4 17:38:44 10° N 17:42:59 22° NE 17:46:43 12° E
BREEZE-M DEB (TANK) 4.4 17:33:50 10° W 17:42:59 47° N 17:46:00 11° ENE
Spot 2 4.5 17:40:02 10° SE 17:43:45 37° ENE 17:47:36 10° N
Landsat 5 3.6 17:41:39 10° NNE 17:45:56 63° ESE 17:50:19 10° S
Okean-O 4.0 17:44:05 10° ESE 17:47:12 19° ENE 17:50:20 10° NNE
YAOGAN 1 3.2 17:47:43 10° SE 17:51:36 34° ENE 17:55:31 10° N
Cosmos 1656 4.4 17:46:21 10° SW 17:51:48 56° WNW 17:57:12 10° NNE
Genesis I 3.7 17:50:06 10° NNW 17:54:03 43° NE 17:57:28 13° ESE
ARGOS 3.1 17:48:58 10° SSE 17:54:16 64° ENE 17:59:38 10° N
Cosmos 2298 Rocket 4.0 17:49:15 10° S 17:54:29 67° ESE 17:59:46 10° NNE
Cosmos 2084 Rocket 3.8 17:50:46 10° SW 17:54:34 56° NW 17:58:25 10° NNE
Cosmos 1727 Rocket 3.9 17:48:40 10° N 17:54:56 78° E 18:01:06 10° SSE
Cosmos 468 4.5 17:50:29 10° NNW 17:55:48 74° ENE 18:01:04 10° SSE
Cosmos 1455 Rocket 3.8 17:52:41 10° SSE 17:56:30 30° E 18:00:22 10° NNE
Cosmos 1697 Rocket 2.7 17:51:30 10° SSW 17:57:09 82° ESE 18:02:50 10° NNE
Cosmos 1048 Rocket 4.0 17:51:49 10° NNW 17:57:14 80° ENE 18:02:32 10° SSE
CZ-4C R/B 2.8 17:54:18 10° NNE 17:57:46 68° E 18:01:07 10° S
Cosmos 389 Rocket 2.3 17:55:03 10° S 17:58:22 58° E 18:01:43 10° NNE
Cosmos 1908 3.5 17:55:02 10° SSE 17:58:45 46° E 18:02:28 10° NNE
MOS 1-B Rocket 4.2 17:52:22 10° NNE 17:59:29 68° ESE 18:05:33 10° S
Cosmos 1174 3.6 17:57:19 10° S 18:00:34 42° ESE 18:02:36 17° NE
HJ-1C 4.2 17:59:06 15° SE 18:01:12 28° ENE 18:04:02 10° N
H-2A R/B 2.7 18:00:41 10° NE 18:04:18 30° E 18:07:57 10° SSE
Cosmos 2227 Rocket 2.8 17:59:56 10° NNW 18:05:31 62° WSW 18:11:05 10° S
Cosmos 2278 4.2 18:00:26 10° S 18:05:36 38° ESE 18:10:48 10° NE
CZ-4 R/B 1.5 18:04:12 10° SSE 18:07:59 48° ENE 18:11:52 10° N
Cosmos 1758 4.1 18:06:59 10° SSW 18:10:54 54° WNW 18:14:48 10° N
CZ-2C R/B 2.8 18:09:24 10° NNE 18:15:04 85° WNW 18:20:39 10° SSW
Meteor 1-16 Rocket 4.3 18:11:07 10° S 18:16:59 68° E 18:22:48 10° NNE
Cosmos 1125 Rocket 3.5 18:12:41 10° SSW 18:17:58 88° ESE 18:23:14 10° NNE
Cosmos 1703 3.2 18:15:19 10° N 18:19:14 60° E 18:23:05 10° SSE
Okean 1 Rocket 4.1 18:16:42 10° SSW 18:20:52 47° WNW 18:25:05 10° N
Cosmos 1953 2.2 18:18:24 10° S 18:22:26 80° E 18:26:30 10° N
SL-16 R/B 4.1 18:20:00 10° SE 18:20:39 12° SE 18:20:39 12° SE
COSMO-SKYMED 1 3.8 18:22:56 10° N 18:27:05 44° WNW 18:31:12 10° SW
SL-08 RB Rocket 3.7 18:23:56 10° SSE 18:28:27 87° W 18:33:02 10° NNW
Cosmos 2082 3.8 18:24:23 10° NNW 18:30:02 78° WSW 18:35:38 10° SSE
Cosmos 1328 4.1 18:26:39 10° N 18:30:31 44° ENE 18:31:21 38° ESE
Meteor 1-21 Rocket 4.3 18:24:39 10° N 18:30:31 89° W 18:36:25 10° S
Cosmos 967 Rocket 4.5 18:24:21 10° NNW 18:30:51 76° NE 18:35:54 18° SE
X-37B 0.7 18:28:11 10° WSW 18:31:19 57° SSE 18:31:32 55° SE
Cosmos 1605 Rocket 4.5 18:26:07 10° SSE 18:31:41 36° E 18:37:20 10° NNE
Lacrosse 4 Rocket 3.8 18:31:40 10° NNE 18:31:40 10° NNE 18:31:40 10° NNE
Cosmos 494 Rocket 4.5 18:29:01 10° NNW 18:34:10 61° WSW 18:39:16 10° S
Iridium 4 Rocket 3.0 18:31:38 10° N 18:35:58 68° E 18:40:37 10° S
Cosmos 1000 Rocket 4.5 18:31:04 10° N 18:37:15 84° W 18:43:26 10° S
DMSP B5D2-2 4.0 18:32:07 10° NNE 18:37:24 69° ESE 18:42:36 10° S
Cosmos 1892 Rocket 3.8 18:37:34 10° NNW 18:42:03 73° W 18:46:28 10° S
DMSP B5D1-3 4.4 18:37:06 10° NNE 18:42:16 81° ESE 18:47:24 10° SSW
Cosmos 489 Rocket 4.4 18:40:00 10° NNW 18:46:12 67° ENE 18:49:47 26° SE
H-2A R/B 3.6 18:44:35 10° S 18:48:51 46° W 18:53:01 10° NNW
Cosmos 405 Rocket 2.9 18:48:08 10° NNW 18:52:03 73° W 18:54:27 23° S
ATLAS 5 CENTAUR R/B 1.3 18:59:52 10° SW 19:03:32 81° SW 19:03:32 81° SW
Cosmos 2227 4.1 19:00:41 10° NNW 19:06:27 67° ENE 19:07:21 58° ESE
Cosmos 1626 Rocket 4.1 19:07:53 10° N 19:11:04 48° N 19:11:04 48° N
Cosmos 1934 Rocket 4.3 19:12:48 10° SSW 19:18:55 64° W 19:24:58 10° N
ATLAS 3B R/B 4.1 19:16:05 10° W 19:22:00 34° NW 19:28:12 10° NNE
Cosmos 1980 Rocket 3.3 19:16:41 10° SW 19:22:03 43° WNW 19:27:29 10° NNE
Okean-O 3.5 19:21:29 29° SSW 19:23:20 46° W 19:27:37 10° NNW
Cosmos 839 Rocket 4.3 19:16:04 10° NNW 19:23:50 57° NE 19:24:24 55° ENE
Cosmos 724 4.1 19:18:22 10° NNW 19:24:22 87° ENE 19:24:48 78° SE
Cosmos 2263 Rocket 2.3 19:21:53 10° NNW 19:27:26 68° WSW 19:28:27 56° SSW
H-2A R/B 4.2 19:36:50 10° NNW 19:40:09 24° WNW 19:43:29 10° WSW
CZ-4 R/B 4.4 19:41:09 10° WSW 19:43:15 14° W 19:45:24 10° WNW
Gbstr 26 Del rocket 4.3 19:40:20 10° WNW 19:47:56 86° SSW 19:48:38 77° SE
Cosmos 1844 Rocket 4.2 19:58:30 10° NNW 20:01:03 26° N 20:01:03 26° N
SL-16 R/B 4.4 20:01:46 10° SW 20:02:40 15° SW 20:02:40 15° SW
Lacrosse 4 Rocket 4.3 20:07:36 10° NNW 20:07:57 12° NNW 20:07:57 12° NNW
Cosmos 2344 4.2 20:15:08 10° NW 20:24:31 89° SW 20:25:37 77° SSE
USA 215 4.4 20:26:30 34° N 20:26:30 34° N 20:31:18 10° NW
